Regional Weather Roundup
Issued by NWS Goodland, KS

Home | Current Version | Previous Version | Graphics & Text | Print | Product List | Glossary On
Versions: 1 2 3 4 5 6 7 8 9 10 11 12 13 14 15 16 17 18 19 20 21 22 23 24 25 26 27 28 29 30 31 32 33 34 35 36 37 38 39 40 41 42 43 44 45 46 47 48 49 50
000
ASUS43 KGLD 032108
RWRGLD

GOODLAND FORECAST AREA HOURLY WEATHER ROUNDUP
NATIONAL WEATHER SERVICE GOODLAND KS
300 PM MDT MON AUG 03 2015

...OFFICIAL OBSERVATIONS...

CITY           SKY/WX    TMP DP  RH WIND       PRES   REMARKS
GOODLAND KS    PTSUNNY   91  59  33 SE16      29.99F
HILL CITY KS   MOSUNNY   94  65  38 SE8       29.93F
IMPERIAL NEB   CLOUDY    86  63  45 E10       29.98F
MCCOOK NEB     CLOUDY    90  68  48 E13       29.95F
AKRON CO       CLOUDY    86  55  34 SE15      30.06F
BURLINGTON CO  PTSUNNY   87  53  31 SE13      30.03F
LIMON CO       LGT RAIN  76  45  33 SE26G35   30.11R
$$

...UNOFFICIAL OBSERVATIONS...

CITY           SKY/WX    TMP DP  RH WIND       PRES   REMARKS
COLBY KS       SUNNY     91  64  40 SE15      29.99S
NORTON KS      SUNNY     88  57  35 SE8       29.93F
SHARON SPRINGS   N/A     87  65  47 E12G20      N/A
KIT CARSON CO    N/A     85  56  36 MISG        N/A
YUMA CO          N/A     87  55  33 SE6G13      N/A
$$


USA.gov is the U.S. government's official web portal to all federal, state and local government web resources and services.